Carcassonne, France

12:34 AM CEST on April 30, 2017 (GMT +0200)
Salvaza

Weather History for LFMK - April, 2014

Change the Weather History Date:

Thursday, April 17, 2014

  Actual Average (LFMP) Record (LFMP)
Temperature  
Mean Temperature 60 °F -  
Max Temperature 74 °F 63 °F 77 °F (2007)
Min Temperature 47 °F 48 °F 44 °F (2009)
Degree Days  
Heating Degree Days 4    
Growing Degree Days 10 (Base 50)    
Moisture  
Dew Point 45 °F    
Average Humidity 60    
Maximum Humidity 94    
Minimum Humidity 15    
Precipitation  
Precipitation 0.00 in - - ()
Sea Level Pressure  
Sea Level Pressure 30.08 in    
Wind  
Wind Speed 8 mph ()    
Max Wind Speed 18 mph    
Max Gust Speed -    
Visibility 7.2 miles    
Events      
Averages and records for this station are not official NWS values.
T = Trace of Precipitation, MM = Missing Value Source: Averaged Metar Reports

Daily Weather History Graph

Daily Weather History Graph

Search for Another Location

Airport or City:

Trip Planner

Search our weather history database for the weather conditions in past years. The results will help you decide how hot, cold, wet, or windy it might be!

Date:

Astronomy

Apr. 17, 2014 Rise Set
Actual Time 7:05 AM CEST 8:35 PM CEST
Civil Twilight 6:35 AM CEST 9:05 PM CEST
Nautical Twilight 6:00 AM CEST 9:41 PM CEST
Astronomical Twilight 5:21 AM CEST 10:20 PM CEST
Moon 11:08 PM CEST (4/17) 8:23 AM CEST (4/17)
Length of Visible Light 14h 29m
Length of Day
13h 29m
Waning Gibbous, 95% of the Moon is Illuminated
Apr 17
Waning Gibbous
Apr 22
Last Quarter
Apr 29
New
May 7
First Quarter
May 14
Full

Hourly Weather History & Observations

Time (CEST) Temp. Dew Point Humidity Pressure Visibility Wind Dir Wind Speed Gust Speed Precip Events Conditions
12:00 AM 53 °F 47 °F 75% 30.17 in 28 mi East 10.4 mph - -   Clear
12:00 AM 53.6 °F 48.2 °F 82% 30.15 in 6.2 mi East 10.4 mph - N/A   Unknown
12:30 AM 51.8 °F 46.4 °F 82% 30.15 in 6.2 mi East 9.2 mph - N/A   Mostly Cloudy
1:00 AM 52 °F 47 °F 79% 30.17 in 22 mi East 10.4 mph - -   Clear
1:00 AM 51.8 °F 48.2 °F 88% 30.15 in 6.2 mi East 10.4 mph - N/A   Partly Cloudy
1:30 AM 51.8 °F 48.2 °F 88% 30.15 in 6.2 mi East 9.2 mph - N/A   Partly Cloudy
2:00 AM 51 °F 48 °F 85% 30.17 in 11 mi East 9.2 mph - -   Clear
2:00 AM 51.8 °F 48.2 °F 88% 30.15 in 6.2 mi East 9.2 mph - N/A   Scattered Clouds
2:30 AM 51.8 °F 48.2 °F 88% 30.15 in 6.2 mi East 10.4 mph - N/A   Mostly Cloudy
3:00 AM 51 °F 48 °F 87% 30.16 in 10 mi East 10.4 mph - -   Clear
3:00 AM 51.8 °F 48.2 °F 88% 30.12 in 6.2 mi East 10.4 mph - N/A   Scattered Clouds
3:30 AM 51.8 °F 48.2 °F 88% 30.12 in 6.2 mi East 9.2 mph - N/A   Mostly Cloudy
4:00 AM 51 °F 48 °F 87% 30.15 in 10 mi East 8.1 mph - -   Clear
4:00 AM 51.8 °F 48.2 °F 88% 30.12 in 6.2 mi East 8.1 mph - N/A   Mostly Cloudy
4:30 AM 51.8 °F 48.2 °F 88% 30.12 in 6.2 mi East 8.1 mph - N/A   Mostly Cloudy
5:00 AM 50 °F 47 °F 88% 30.14 in 9 mi East 6.9 mph - -   Clear
5:00 AM 50.0 °F 48.2 °F 94% 30.12 in 6.2 mi East 6.9 mph - N/A   Mostly Cloudy
5:30 AM 50.0 °F 48.2 °F 94% 30.12 in 6.2 mi East 5.8 mph - N/A   Mostly Cloudy
6:00 AM 51 °F 48 °F 84% 30.13 in 9 mi East 6.9 mph - -   Clear
6:00 AM 50.0 °F 48.2 °F 94% 30.12 in 6.2 mi East 6.9 mph - N/A   Overcast
6:30 AM 50.0 °F 46.4 °F 87% 30.12 in 6.2 mi East 5.8 mph - N/A   Mostly Cloudy
7:00 AM 50 °F 47 °F 88% 30.14 in 8 mi East 4.6 mph - -   Clear
7:00 AM 50.0 °F 48.2 °F 94% 30.12 in 6.2 mi East 4.6 mph - N/A   Mostly Cloudy
7:30 AM 50.0 °F 48.2 °F 94% 30.12 in 5.6 mi Variable 3.5 mph - N/A   Mostly Cloudy
8:00 AM 48 °F 45 °F 86% 30.15 in 9 mi SSE 2.3 mph - -   Clear
8:00 AM 48.2 °F 44.6 °F 87% 30.12 in 6.2 mi Variable 2.3 mph - N/A   Mostly Cloudy
8:30 AM 50.0 °F 46.4 °F 87% 30.12 in 6.2 mi Variable 2.3 mph - N/A   Scattered Clouds
9:00 AM 53 °F 47 °F 75% 30.14 in 11 mi SSE 1.2 mph - -   Clear
9:00 AM 53.6 °F 48.2 °F 82% 30.12 in 6.2 mi Variable 1.2 mph - N/A   Partly Cloudy
9:30 AM 55.4 °F 48.2 °F 77% 30.12 in 6.2 mi Variable 2.3 mph - N/A   Mostly Cloudy
10:00 AM 57 °F 49 °F 67% 30.14 in 12 mi East 5.8 mph - -   Clear
10:00 AM 57.2 °F 50.0 °F 77% 30.12 in 6.2 mi East 5.8 mph - N/A   Mostly Cloudy
10:30 AM 59.0 °F 50.0 °F 72% 30.12 in 6.2 mi East 6.9 mph - N/A   Mostly Cloudy
11:00 AM 61 °F 49 °F 56% 30.14 in 12 mi East 3.5 mph - -   Clear
11:00 AM 60.8 °F 50.0 °F 68% 30.12 in 6.2 mi Variable 3.5 mph - N/A   Partly Cloudy
11:30 AM 60.8 °F 48.2 °F 63% 30.12 in 6.2 mi Variable 2.3 mph - N/A   Partly Cloudy
12:00 PM 62 °F 49 °F 52% 30.12 in 12 mi SW 2.3 mph - -   Clear
12:00 PM 62.6 °F 48.2 °F 59% 30.12 in 6.2 mi Variable 2.3 mph - N/A   Unknown
12:30 PM 64.4 °F 46.4 °F 52% 30.09 in 6.2 mi Variable 2.3 mph - N/A   Unknown
1:00 PM 66 °F 47 °F 38% 30.09 in 11 mi West 6.9 mph - -   Clear
1:00 PM 66.2 °F 46.4 °F 49% 30.09 in 6.2 mi West 6.9 mph - N/A   Unknown
1:30 PM 68.0 °F 46.4 °F 46% 30.06 in 6.2 mi West 9.2 mph - N/A   Unknown
2:00 PM 69 °F 47 °F 33% 30.06 in 12 mi West 13.8 mph - -   Clear
2:00 PM 69.8 °F 46.4 °F 43% 30.06 in 6.2 mi West 13.8 mph - N/A   Unknown
2:30 PM 71.6 °F 44.6 °F 38% 30.04 in 6.2 mi West 15.0 mph - N/A   Unknown
3:00 PM 72 °F 41 °F 22% 30.04 in 12 mi WNW 17.3 mph - -   Clear
3:00 PM 73.4 °F 41.0 °F 31% 30.04 in 6.2 mi WNW 17.3 mph - N/A   Unknown
3:30 PM 73.4 °F 41.0 °F 31% 30.04 in 6.2 mi WNW 17.3 mph - N/A   Unknown
4:00 PM 74 °F 40 °F 18% 30.02 in 22 mi WNW 18.4 mph - -   Clear
4:00 PM 73.4 °F 39.2 °F 29% 30.04 in 6.2 mi WNW 18.4 mph - N/A   Unknown
4:30 PM 75.2 °F 41.0 °F 29% 30.01 in 6.2 mi WNW 16.1 mph - N/A   Unknown
5:00 PM 75 °F 39 °F 17% 30.00 in 22 mi WNW 16.1 mph - -   Clear
5:00 PM 75.2 °F 39.2 °F 27% 30.01 in 6.2 mi WNW 16.1 mph - N/A   Unknown
5:30 PM 75.2 °F 37.4 °F 25% 30.01 in 6.2 mi West 16.1 mph - N/A   Unknown
6:00 PM 74 °F 36 °F 15% 30.00 in 22 mi West 18.4 mph - -   Clear
6:00 PM 73.4 °F 35.6 °F 25% 30.01 in 6.2 mi West 18.4 mph - N/A   Unknown
6:30 PM 73.4 °F 39.2 °F 29% 30.01 in 6.2 mi West 16.1 mph - N/A   Unknown
7:00 PM 73 °F 39 °F 19% 29.99 in 22 mi WNW 13.8 mph - -   Clear
7:00 PM 73.4 °F 39.2 °F 29% 29.98 in 6.2 mi WNW 13.8 mph - N/A   Unknown
7:30 PM 71.6 °F 39.2 °F 31% 29.98 in 6.2 mi WNW 15.0 mph - N/A   Unknown
8:00 PM 71 °F 39 °F 21% 29.99 in 25 mi West 11.5 mph - -   Clear
8:00 PM 69.8 °F 39.2 °F 33% 29.98 in 6.2 mi West 11.5 mph - N/A   Unknown
8:30 PM 68.0 °F 37.4 °F 33% 30.01 in 6.2 mi West 9.2 mph - N/A   Unknown
9:00 PM 66 °F 40 °F 27% 30.00 in 37 mi West 8.1 mph - -   Clear
9:00 PM 66.2 °F 41.0 °F 40% 30.01 in 6.2 mi West 8.1 mph - N/A   Unknown
9:30 PM 64.4 °F 42.8 °F 45% 30.01 in 6.2 mi West 6.9 mph - N/A   Unknown
10:00 PM 64 °F 44 °F 37% 30.03 in 37 mi West 8.1 mph - -   Clear
10:00 PM 64.4 °F 44.6 °F 49% 30.01 in 6.2 mi West 8.1 mph - N/A   Unknown
10:30 PM 62.6 °F 44.6 °F 52% 30.04 in 6.2 mi West 6.9 mph - N/A   Unknown
11:00 PM 60 °F 46 °F 50% 30.05 in 37 mi West 5.8 mph - -   Clear
11:00 PM 60.8 °F 46.4 °F 59% 30.04 in 6.2 mi West 5.8 mph - N/A   Unknown
11:30 PM 59.0 °F 46.4 °F 63% 30.04 in 6.2 mi West 8.1 mph - N/A   Unknown